SCOUT A DEB, 2702

Orbit data source: Space-Track

SCOUT A DEB, 2702 is space debris in LEO originally from a launch on Thu, 18 Aug 1966 UTC launched from the Air Force Western Test Range (AFWTR). Debris objects in space refer to the collection of defunct objects orbiting the Earth. Examples of debris include non-operational satellites, rocket bodies, and fragments generated from explosions, collisions, or faulty payload assembly.

Loading next visibility...
Identifier
2702, 1966-076D
Orbit
LEO
Country
Flag of USUS
Related business
Manufacturer
Unknown
Mission
Spacecraft
Bus & Motor
Unknown
Mass
Unknown
Launch date (UTC)
1966-08-18 (60 years ago)
Launch vehicle
Unknown
Launch site
Air Force Western Test Range (AFWTR)
Object type
Payload
Rocket body
Debris
Shape & HBR
Unknown shape, 0.1 m
Radar Cross Section
Small (<0.1 m²)

Expand to show TLE details & history
Last TLE update: 1 day ago

TLE from 1 day ago
0 SCOUT A DEB
1 02702U 66076D   26140.34301304  .00000064  00000-0  97585-4 0  9995
2 02702  88.5642 261.8056 0087256 356.1848  59.2639 13.36558903892610
Epoch: 2026-05-20T08:13Z
TLE epoch observation values (Epoch: 2026-05-20T08:13:56.326Z)
Latitude
56.37905°
Longitude
-97.53381°
Altitude
1,098.577 km
Speed
7.324 km/s
True Right ascension
17h 35m 49s
True Declination
56° 13' 39"
Sunlit
Object was in daylight at epoch
Visualization orbit readout
Latitude
Unknown
Longitude
Unknown
Altitude
Unknown
Speed
Unknown
Apparent Right ascension
Unknown
Apparent Declination
Unknown
Sunlit
N/A
Visualization observer readout
Local Sidereal Time
19:39:30
Azimuth
Unknown
Elevation
Unknown
Doppler factor
Unknown
Orbital elements
Apogee altitude
1,184.618 km
Perigee altitude
1,053.781 km
Semi-major axis
7,497.337 km
Eccentricity
0.00873
Inclination
88.5642°
RAAN
261.8056°
Arg. of periapsis
356.1848°
True anomaly
60.12811°
Mean anomaly
59.2639°
Eccentric anomaly
59.69553°
Mean motion
3.34336 °/min
Orbital period
107.68 mins
BSTAR
0.000097585
Loading maneuver chart data...
Computing Atmospheric mass density...
Loading historical data...
Loading historical data...
Loading historical data...
Loading historical data...
Loading historical data...
Loading historical data...
Loading historical data...

Documentation

Showing up to 5 results
|